Regional Weather Roundup
Issued by NWS

Home | Current Version | Previous Version | Graphics & Text | Print | Product List | Glossary On
Versions: 1 2 3 4 5 6 7 8 9 10 11 12 13 14 15 16 17 18 19 20 21 22 23 24 25 26 27 28 29 30 31 32 33 34 35 36 37 38 39 40 41 42 43 44 45 46 47 48 49 50
000
ASUS43 KOAX 201802
RWRNE

WEATHER ROUNDUP FOR NEBRASKA
NATIONAL WEATHER SERVICE OMAHA NE
100 PM CDT WED AUG 20 2014

NOTES: SATELLITE DATA IS BEING USED TO AUGMENT CLOUD COVER ABOVE
       12000 FEET.
       "FAIR" INDICATES FEW OR NO CLOUDS BELOW 12,000 FEET WITH NO
       SIGNIFICANT WEATHER AND/OR OBSTRUCTIONS TO VISIBILITY.

  * THESE STATIONS DO NOT REPORT WEATHER SUCH AS RAIN...SNOW OR FOG.

NEZ001>004-019>022-054>056-201900-
NEBRASKA PANHANDLE

CITY           SKY/WX    TMP DP  RH WIND       PRES   REMARKS
SCOTTSBLUFF    SUNNY     88  56  33 NW12      29.84F
6HR MIN TEMP:  63; 6HR MAX TEMP:  88;

ALLIANCE       MOSUNNY   87  52  29 W12       29.83F
6HR MIN TEMP:  64; 6HR MAX TEMP:  87;

CHADRON        SUNNY     89  53  29 MISG      29.76F
6HR MIN TEMP:  70; 6HR MAX TEMP:  89;

KIMBALL        MOSUNNY   85  48  27 W12G17    29.90S
SIDNEY         SUNNY     88  52  29 VRB3      29.88F
6HR MIN TEMP:  63; 6HR MAX TEMP:  88;

$$

NEZ057>060-069>072-079>082-201900-
SOUTHWEST NEBRASKA

CITY           SKY/WX    TMP DP  RH WIND       PRES   REMARKS
NORTH PLATTE   CLOUDY    77  67  71 CALM      29.79S
6HR MIN TEMP:  73; 6HR MAX TEMP:  77; 6HR PCP: TRACE;

IMPERIAL       PTSUNNY   80  64  58 N8        29.82S
6HR MIN TEMP:  67; 6HR MAX TEMP:  80; 6HR PCP: TRACE;

LEXINGTON      PTSUNNY   85  71  62 S5        29.78S HX  91
MCCOOK         MOSUNNY   92  63  38 SE7       29.77F HX  93
6HR MIN TEMP:  73; 6HR MAX TEMP:  92; 6HR PCP: TRACE;

OGALLALA       PTSUNNY   82  60  46 N8        29.81F
$$

NEZ005>010-023>029-035>040-094-201900-
NORTH CENTRAL NEBRASKA

CITY           SKY/WX    TMP DP  RH WIND       PRES   REMARKS
VALENTINE      CLOUDY    82  60  47 S6        29.76R
6HR MIN TEMP:  63; 6HR MAX TEMP:  82;

AINSWORTH      CLOUDY    79  66  65 S7        29.77R
BROKEN BOW     CLOUDY    81  69  67 VRB7      29.78F
6HR MIN TEMP:  67; 6HR MAX TEMP:  81; 6HR PCP: TRACE;

O`NEILL        CLOUDY    76  71  84 SE9       29.77F
ORD            CLOUDY    80  68  66 SE8       29.76F
6HR MIN TEMP:  70; 6HR MAX TEMP:  80; 6HR PCP: TRACE;

THEDFORD       CLOUDY    81  65  59 N5        29.79S
$$

NEZ041-046>049-061>064-073>077-083>087-201900-
SOUTH CENTRAL NEBRASKA

CITY           SKY/WX    TMP DP  RH WIND       PRES   REMARKS
GRAND ISLAND   PTSUNNY   85  71  63 SE15      29.78F HX  90
6HR MIN TEMP:  74; 6HR MAX TEMP:  85; 6HR PCP: TRACE;

AURORA         PTSUNNY   85  73  67 SE15      29.79F HX  92
HASTINGS       MOSUNNY   88  67  49 SE14      29.79F HX  91
6HR MIN TEMP:  71; 6HR MAX TEMP:  88;

HEBRON         SUNNY     88  68  51 S9        29.81F HX  91
HOLDREGE       MOSUNNY   88  67  49 S12       29.78S HX  91
KEARNEY *      PTSUNNY   84  72  65 SE14      29.79S
$$

NEZ011>018-030>034-042>045-201900-
NORTHEAST NEBRASKA

CITY           SKY/WX    TMP DP  RH WIND       PRES   REMARKS
NORFOLK        CLOUDY    79  68  69 SE18      29.80F
6HR MIN TEMP:  70; 6HR MAX TEMP:  80; 6HR PCP:  0.01;

ALBION         CLOUDY    79  68  69 SE9       29.79S
BLAIR          CLOUDY    80  70  73 SE12G18   29.84S
COLUMBUS *     CLOUDY    73  70  88 SE9G17    29.80F
FREMONT        CLOUDY    79  70  73 E14       29.82F
TEKAMAH        CLOUDY    77  69  76 SE13      29.83F
6HR MIN TEMP:  71; 6HR MAX TEMP:  77; 6HR PCP: TRACE;

WAYNE          CLOUDY    72  69  92 S12       29.81F
$$

NEZ050>053-065>068-078-088>093-201900-
SOUTHEAST NEBRASKA

CITY           SKY/WX    TMP DP  RH WIND       PRES   REMARKS
LINCOLN        MOSUNNY   91  70  49 S15       29.82F HX  96
6HR MIN TEMP:  76; 6HR MAX TEMP:  91;

OMAHA EPPLEY   CLOUDY    82  68  62 SE18      29.84F
6HR MIN TEMP:  73; 6HR MAX TEMP:  82; 6HR PCP: TRACE;

BEATRICE       MOSUNNY   89  71  55 SE8       29.83F HX  95
FALLS CITY     SUNNY     92  73  53 SE9       29.84F HX 100
6HR MIN TEMP:  70; 6HR MAX TEMP:  93;

NEBRASKA CITY  MOSUNNY   84  73  69 SE10      29.86S HX  91
PLATTSMOUTH    PTSUNNY   86  72  62 SE9       29.85F HX  91
$$

NEZ044-045-051>053-067-201900-
OMAHA AREA

CITY           SKY/WX    TMP DP  RH WIND       PRES   REMARKS
OMAHA EPPLEY   CLOUDY    82  68  62 SE18      29.84F
6HR MIN TEMP:  73; 6HR MAX TEMP:  82; 6HR PCP: TRACE;

BLAIR          CLOUDY    80  70  73 SE12G18   29.84S
FREMONT        CLOUDY    79  70  73 E14       29.82F
MILLARD        CLOUDY    83  72  69 SE15      29.83F
OFFUTT AFB     CLOUDY    83  75  75 SE16      29.84F HX  91
PLATTSMOUTH    PTSUNNY   86  72  62 SE9       29.85F HX  91
WAHOO          FAIR      85  71  63 SE15G21   29.81F HX  90
$$


USA.gov is the U.S. government's official web portal to all federal, state and local government web resources and services.